Regional Weather Roundup
Issued by NWS

Home | Current Version | Previous Version | Graphics & Text | Print | Product List | Glossary On
Versions: 1 2 3 4 5 6 7 8 9 10 11 12 13 14 15 16 17 18 19 20 21 22 23 24 25 26 27 28 29 30 31 32 33 34 35 36 37 38 39 40 41 42 43 44 45 46 47 48 49 50
000
ASUS45 KBOI 172110
RWRID
WEATHER ROUNDUP FOR IDAHO
NATIONAL WEATHER SERVICE BOISE ID
300 PM MDT WED SEP 17 2014

NOTE: "FAIR" INDICATES FEW OR NO CLOUDS BELOW 12000 FEET
WITH NO SIGNIFICANT WEATHER AND/OR OBSTRUCTIONS TO VISIBILITY

IDZ012-014-172200-
SOUTHWEST IDAHO


CITY           SKY/WX    TMP DP  RH WIND       PRES   REMARKS
BOISE          MOSUNNY   91  39  16 N5        29.81F
CALDWELL       MOSUNNY   84  46  26 CALM      29.82F
MOUNTAIN HOME  MOSUNNY   89  43  20 VRB2      29.81F
$$

IDZ016-017-172200-
SOUTHCENTRAL IDAHO


CITY           SKY/WX    TMP DP  RH WIND       PRES   REMARKS
BURLEY         PTSUNNY   90  43  19 VRB3      29.87F
JEROME         PTSUNNY   86  44  23 SW5       29.89F
TWIN FALLS     PTSUNNY   85  49  28 NW6       29.89F
$$

IDZ019>023-172200-
SOUTHEAST IDAHO


CITY           SKY/WX    TMP DP  RH WIND       PRES   REMARKS
IDAHO FALLS    PTSUNNY   86  43  22 VRB5      29.96F
POCATELLO      SUNNY     90  39  16 SW7       29.92F
REXBURG        PTSUNNY   81  46  29 NW5       29.98F
$$

IDZ006-010-011-018-031-032-172200-
CENTRAL IDAHO MOUNTAINS


CITY           SKY/WX    TMP DP  RH WIND       PRES   REMARKS
MCCALL         CLOUDY    73  46  38 S3        29.95F
HAILEY         PTSUNNY   82  45  26 SE14      29.99F
STANLEY          N/A     73  40  30 N7        30.07F
SALMON         CLOUDY    70  46  43 CALM      29.94F
CHALLIS        CLOUDY    74  41  30 N7        29.98F
$$

IDZ002-004-006-007-026-172200-
NORTHERN IDAHO


CITY           SKY/WX    TMP DP  RH WIND       PRES   REMARKS
LEWISTON       CLOUDY    85  43  22 VRB6      29.71F
LOWELL           N/A     74  58  57 CALM      29.76F
COEUR D`ALENE  PTSUNNY   81  39  22 CALM      29.76F
MULLAN PASS    PTSUNNY   70  41  34 VRB5      29.99F
$$


USA.gov is the U.S. government's official web portal to all federal, state and local government web resources and services.